Flag for Switzerland Weather past 2 weeks in Meyrin, Geneva, Switzerland

Now
36 °F

Snow flurries. Broken clouds.


Feels Like: 32 °F
Forecast: 30 / 35 °F
Wind: 5 mph from West

Location: Geneva Cointrin Airport

Current Time: Jan 31, 2015 at 1:39:56 PM

Latest Report: Jan 31, 2015 at 1:20 PM


Visibility: N/A

Pressure: 29.12 "Hg

Humidity: 81%

Dew point: 30 °F

Location of MeyrinLocation

Historic Weather in Meyrin — Graph

°F

Meyrin temperature yesterday

Maximum temperature yesterday: 41 °F (at 12:50 AM)
Minimum temperature yesterday: 32 °F (at 3:50 PM)
Average temperature yesterday: 35 °F

Past Weeks' High & Low Weather Summary

 TemperatureHumidityPressure
High43 °F (Jan 16, 12:20 PM)100% (Jan 16, 12:50 PM)30.36 "Hg (Jan 16, 12:50 PM)
Low25 °F (Jan 18, 4:50 AM)48% (Jan 25, 1:20 PM)28.97 "Hg (Jan 29, 10:50 PM)
Average35 °F86%29.89 "Hg
* Reported Jan 16 12:20 PM — Jan 31 12:20 PM, Meyrin, Weather by CustomWeather, © 2014

Note: Actual official high and low records may vary slightly from our data, if they occured in-between our weather recording intervals... More about our weather records

Advertising

Meyrin weather history for previous 24 hours

 ConditionsComfort  
Time TempWeatherWind HumidityBarometerVisibility
12:20 PM
Jan 31
34 °FSnow flurries. Broken clouds.6 mph87%29.12 "HgN/A
11:50 AM32 °FSnow flurries. Broken clouds.7 mph100%29.12 "Hg3 mi
11:20 AM34 °FSnow flurries. Broken clouds.12 mph81%29.12 "Hg3 mi
10:50 AM36 °FScattered showers. Broken clouds.2 mph75%29.12 "HgN/A
10:20 AM34 °FScattered showers. Broken clouds.1 mph81%29.12 "HgN/A
9:50 AM32 °FBroken clouds.2 mph87%29.09 "HgN/A
9:20 AM30 °FBroken clouds.1 mph93%29.09 "HgN/A
8:50 AM28 °FPartly sunny.2 mph100%29.09 "HgN/A
8:20 AM27 °FPartly sunny.No wind100%29.09 "HgN/A
7:50 AM27 °FPassing clouds.2 mph100%29.09 "HgN/A
7:20 AM27 °FPassing clouds.3 mph100%29.09 "HgN/A
6:50 AM27 °FPassing clouds.1 mph100%29.09 "HgN/A
6:20 AM27 °FPassing clouds.2 mph100%29.09 "HgN/A
5:50 AM28 °FPassing clouds.1 mph93%29.09 "HgN/A
5:20 AM28 °FPassing clouds.5 mph93%29.09 "HgN/A
4:50 AM30 °FPassing clouds.3 mph93%29.09 "HgN/A
4:20 AM32 °FPassing clouds.7 mph87%29.12 "HgN/A
3:50 AM32 °FPassing clouds.10 mph87%29.12 "HgN/A
3:20 AM34 °FPassing clouds.10 mph87%29.12 "HgN/A
2:50 AM34 °FScattered showers. Passing clouds.8 mph87%29.12 "HgN/A
1:50 AM34 °FScattered showers. Passing clouds.9 mph93%29.09 "HgN/A
1:20 AM34 °FPassing clouds.7 mph93%29.09 "HgN/A
12:50 AM34 °FPartly cloudy.13 mph93%29.09 "Hg5 mi
12:20 AM34 °FSnow flurries. Partly cloudy.13 mph93%29.09 "Hg4 mi
11:50 PM
Jan 30
34 °FSnow flurries. Partly cloudy.5 mph93%29.06 "Hg4 mi
11:20 PM36 °FSnow flurries. Partly cloudy.14 mph87%29.06 "Hg4 mi
10:50 PM34 °FPartly cloudy.8 mph93%29.06 "HgN/A
10:20 PM34 °FSnow flurries. Partly cloudy.16 mph93%29.06 "Hg4 mi
9:50 PM34 °FLight snow. Fog.14 mph93%29.03 "Hg3 mi
9:20 PM34 °FSnow showers. Fog.13 mph93%29.03 "Hg2 mi
8:50 PM34 °FSnow flurries. Fog.14 mph100%29.03 "Hg3 mi
8:20 PM32 °FLight snow. Partly cloudy.15 mph100%29.03 "Hg4 mi
7:50 PM32 °FSnow. Dense fog.20 mph100%29.00 "Hg1 mi
7:20 PM32 °FLight snow. Passing clouds.18 mph100%29.00 "Hg2 mi
6:50 PM32 °FSnow. Dense fog.22 mph100%29.00 "Hg1 mi
6:20 PM32 °FLight snow. Passing clouds.17 mph100%29.00 "Hg1 mi
5:50 PM32 °FLight snow. Passing clouds.16 mph100%29.00 "Hg2 mi
5:20 PM32 °FSnow. Dense fog.15 mph100%29.00 "Hg1 mi
4:50 PM32 °FLight snow. Partly sunny.17 mph100%29.03 "Hg1 mi
4:20 PM32 °FLight snow. Partly sunny.17 mph100%29.03 "Hg1 mi
3:50 PM32 °FSnow. Dense fog.14 mph100%29.03 "Hg2 mi
3:20 PM34 °FSnow. Dense fog.18 mph87%29.03 "Hg1 mi
2:50 PM36 °FLight snow. Partly sunny.18 mph75%29.03 "Hg4 mi
2:20 PM37 °FScattered showers. Broken clouds.20 mph65%29.06 "HgN/A
1:50 PM37 °FPartly sunny.18 mph70%29.06 "HgN/A
1:20 PM37 °FScattered showers. Partly sunny.16 mph70%29.09 "HgN/A
Weather by CustomWeather, © 2014

See weather overviewHow to use our weather pages